Time,TemperatureF,DewpointF,PressureIn,WindDirection,WindDirectionDegrees,WindSpeedMPH,WindSpeedGustMPH,Humidity,HourlyPrecipIn,Conditions,Clouds,dailyrainin,SoftwareType,DateUTC
2013-02-09 00:00:00,31.5,26.0,29.98,SE,137,0.0,0.0,80,0.00,,---,0.00,VWS V14.01,2013-02-09 08:00:00,
2013-02-09 00:05:00,31.5,26.0,29.98,ESE,110,0.0,3.1,80,0.00,,---,0.00,VWS V14.01,2013-02-09 08:05:00,
2013-02-09 00:11:00,31.3,25.8,29.98,ESE,110,0.0,0.0,80,0.00,,---,0.00,VWS V14.01,2013-02-09 08:11:00,
2013-02-09 00:16:00,31.3,25.5,29.98,SSW,202,0.0,2.2,79,0.00,,---,0.00,VWS V14.01,2013-02-09 08:16:00,
2013-02-09 00:22:00,31.5,25.7,29.98,SSE,153,0.0,2.2,79,0.00,,---,0.00,VWS V14.01,2013-02-09 08:22:00,
2013-02-09 00:27:00,31.6,25.9,29.98,SE,142,0.0,5.8,79,0.00,,---,0.00,VWS V14.01,2013-02-09 08:27:00,
2013-02-09 00:32:00,32.2,26.1,29.98,SE,131,0.0,4.0,78,0.00,,---,0.00,VWS V14.01,2013-02-09 08:32:00,
2013-02-09 00:37:00,32.5,26.1,29.98,South,187,0.0,4.0,77,0.00,,---,0.00,VWS V14.01,2013-02-09 08:37:00,
2013-02-09 00:42:00,32.5,26.1,29.98,ESE,123,0.0,0.0,77,0.00,,---,0.00,VWS V14.01,2013-02-09 08:42:00,
2013-02-09 00:47:00,32.4,26.0,29.98,SE,140,2.7,6.3,77,0.00,,---,0.00,VWS V14.01,2013-02-09 08:47:00,
2013-02-09 00:52:00,32.7,26.0,29.98,NE,41,0.0,7.6,76,0.00,,---,0.00,VWS V14.01,2013-02-09 08:52:00,
2013-02-09 00:57:00,32.9,25.2,29.98,SE,130,3.6,7.6,73,0.00,,---,0.00,VWS V14.01,2013-02-09 08:57:00,
2013-02-09 01:03:00,33.1,24.7,29.98,WNW,282,0.0,4.9,71,0.00,,---,0.00,VWS V14.01,2013-02-09 09:03:00,
2013-02-09 01:08:00,33.1,25.0,29.98,WNW,282,0.0,4.9,72,0.00,,---,0.00,VWS V14.01,2013-02-09 09:08:00,
2013-02-09 01:13:00,32.5,24.5,29.98,SSE,159,4.9,4.9,72,0.00,,---,0.00,VWS V14.01,2013-02-09 09:13:00,
2013-02-09 01:18:00,32.2,24.5,29.98,SE,138,3.1,4.9,73,0.00,,---,0.00,VWS V14.01,2013-02-09 09:18:00,
2013-02-09 01:24:00,31.8,24.5,29.98,ENE,77,0.0,4.5,74,0.00,,---,0.00,VWS V14.01,2013-02-09 09:24:00,
2013-02-09 01:29:00,31.5,24.1,29.98,South,170,3.6,6.3,74,0.00,,---,0.00,VWS V14.01,2013-02-09 09:29:00,
2013-02-09 01:34:00,31.5,24.5,29.98,WSW,240,0.0,12.3,75,0.00,,---,0.00,VWS V14.01,2013-02-09 09:34:00,
2013-02-09 01:39:00,31.6,24.6,29.98,WSW,245,0.0,12.3,75,0.00,,---,0.00,VWS V14.01,2013-02-09 09:39:00,
2013-02-09 01:44:00,31.8,24.5,29.98,SW,227,0.0,4.0,74,0.00,,---,0.00,VWS V14.01,2013-02-09 09:44:00,
2013-02-09 01:49:00,32.0,24.7,29.98,NE,44,0.0,12.3,74,0.00,,---,0.00,VWS V14.01,2013-02-09 09:49:00,
2013-02-09 01:54:00,31.8,24.5,29.98,East,99,2.2,10.1,74,0.00,,---,0.00,VWS V14.01,2013-02-09 09:54:00,
2013-02-09 02:00:00,32.2,24.8,29.98,SSE,154,0.0,10.1,74,0.00,,---,0.00,VWS V14.01,2013-02-09 10:00:00,
2013-02-09 02:05:00,32.2,24.8,29.98,SE,124,0.0,4.0,74,0.00,,---,0.00,VWS V14.01,2013-02-09 10:05:00,
2013-02-09 02:10:00,32.2,24.5,29.98,East,81,0.0,0.0,73,0.00,,---,0.00,VWS V14.01,2013-02-09 10:10:00,
2013-02-09 02:15:00,32.0,24.7,29.98,SE,143,0.0,8.1,74,0.00,,---,0.00,VWS V14.01,2013-02-09 10:15:00,
2013-02-09 02:20:00,31.8,24.5,29.98,SSE,157,6.3,6.3,74,0.00,,---,0.00,VWS V14.01,2013-02-09 10:20:00,
2013-02-09 02:25:00,31.3,24.0,29.98,SSW,194,0.0,6.7,74,0.00,,---,0.00,VWS V14.01,2013-02-09 10:25:00,
2013-02-09 02:30:00,31.1,23.8,29.98,SSW,193,2.7,3.6,74,0.00,,---,0.00,VWS V14.01,2013-02-09 10:30:00,
2013-02-09 02:35:00,30.9,23.9,29.98,North,353,0.0,5.8,75,0.00,,---,0.00,VWS V14.01,2013-02-09 10:35:00,
2013-02-09 02:41:00,30.7,23.8,29.98,East,79,0.0,0.0,75,0.00,,---,0.00,VWS V14.01,2013-02-09 10:41:00,
2013-02-09 02:46:00,30.6,23.6,29.98,East,79,0.0,0.0,75,0.00,,---,0.00,VWS V14.01,2013-02-09 10:46:00,
2013-02-09 02:51:00,30.2,23.6,29.98,East,79,0.0,0.0,76,0.00,,---,0.00,VWS V14.01,2013-02-09 10:51:00,
2013-02-09 02:56:00,30.2,23.9,29.98,SE,128,2.7,5.4,77,0.00,,---,0.00,VWS V14.01,2013-02-09 10:56:00,
2013-02-09 03:01:00,30.0,23.7,29.98,SE,139,0.0,4.0,77,0.00,,---,0.00,VWS V14.01,2013-02-09 11:01:00,
2013-02-09 03:06:00,30.0,23.7,29.98,ESE,121,5.4,5.4,77,0.00,,---,0.00,VWS V14.01,2013-02-09 11:06:00,
2013-02-09 03:12:00,29.8,23.8,29.98,SE,133,0.0,0.0,78,0.00,,---,0.00,VWS V14.01,2013-02-09 11:12:00,
2013-02-09 03:17:00,29.8,23.8,29.98,SE,133,0.0,0.0,78,0.00,,---,0.00,VWS V14.01,2013-02-09 11:17:00,
2013-02-09 03:23:00,29.7,23.6,29.98,SE,133,0.0,0.0,78,0.00,,---,0.00,VWS V14.01,2013-02-09 11:23:00,
2013-02-09 03:29:00,29.7,23.6,29.98,SE,133,0.0,0.0,78,0.00,,---,0.00,VWS V14.01,2013-02-09 11:29:00,
2013-02-09 03:34:00,29.1,23.1,29.98,SE,133,0.0,2.2,78,0.00,,---,0.00,VWS V14.01,2013-02-09 11:34:00,
2013-02-09 03:39:00,28.8,22.8,29.98,SE,133,0.0,3.6,78,0.00,,---,0.00,VWS V14.01,2013-02-09 11:39:00,
2013-02-09 03:44:00,28.8,23.1,29.98,SE,133,0.0,3.1,79,0.00,,---,0.00,VWS V14.01,2013-02-09 11:44:00,
2013-02-09 03:49:00,28.6,22.9,29.98,ESE,117,2.7,5.8,79,0.00,,---,0.00,VWS V14.01,2013-02-09 11:49:00,
2013-02-09 03:54:00,29.1,23.4,29.98,WNW,297,7.6,10.1,79,0.00,,---,0.00,VWS V14.01,2013-02-09 11:54:00,
2013-02-09 03:59:00,30.2,24.5,29.98,South,185,0.0,10.1,79,0.00,,---,0.00,VWS V14.01,2013-02-09 11:59:00,
2013-02-09 04:04:00,30.2,24.5,29.98,ESE,106,3.1,5.4,79,0.00,,---,0.00,VWS V14.01,2013-02-09 12:04:00,
2013-02-09 04:09:00,30.0,24.0,29.98,WSW,245,0.0,8.7,78,0.00,,---,0.00,VWS V14.01,2013-02-09 12:09:00,
2013-02-09 04:14:00,29.7,23.6,29.98,North,0,5.4,6.3,78,0.00,,---,0.00,VWS V14.01,2013-02-09 12:14:00,
2013-02-09 04:20:00,29.5,23.5,29.98,ENE,57,0.0,6.3,78,0.00,,---,0.00,VWS V14.01,2013-02-09 12:20:00,
2013-02-09 04:25:00,29.1,23.1,29.98,East,91,2.2,3.6,78,0.00,,---,0.00,VWS V14.01,2013-02-09 12:25:00,
2013-02-09 04:30:00,29.1,23.4,29.98,SE,140,0.0,4.9,79,0.00,,---,0.00,VWS V14.01,2013-02-09 12:30:00,
2013-02-09 04:35:00,28.8,23.1,29.95,ESE,119,0.0,5.4,79,0.00,,---,0.00,VWS V14.01,2013-02-09 12:35:00,
2013-02-09 04:40:00,28.8,23.1,29.95,SSE,167,6.3,6.3,79,0.00,,---,0.00,VWS V14.01,2013-02-09 12:40:00,
2013-02-09 04:45:00,29.5,23.8,29.95,East,93,2.7,6.3,79,0.00,,---,0.00,VWS V14.01,2013-02-09 12:45:00,
2013-02-09 04:50:00,29.8,24.1,29.98,SSE,151,2.2,8.1,79,0.00,,---,0.00,VWS V14.01,2013-02-09 12:50:00,
2013-02-09 04:55:00,29.8,24.1,29.98,SSE,167,0.0,5.8,79,0.00,,---,0.00,VWS V14.01,2013-02-09 12:55:00,
2013-02-09 05:00:00,29.5,23.8,29.98,ESE,120,0.0,2.7,79,0.00,,---,0.00,VWS V14.01,2013-02-09 13:00:00,
2013-02-09 05:05:00,29.7,24.0,29.98,South,173,4.9,4.9,79,0.00,,---,0.00,VWS V14.01,2013-02-09 13:05:00,
2013-02-09 05:11:00,29.5,23.8,29.98,SSE,150,7.6,8.7,79,0.00,,---,0.00,VWS V14.01,2013-02-09 13:11:00,
2013-02-09 05:16:00,30.6,24.8,29.98,ESE,108,4.0,8.7,79,0.00,,---,0.00,VWS V14.01,2013-02-09 13:16:00,
2013-02-09 05:21:00,31.3,25.5,29.98,NE,41,0.0,2.7,79,0.00,,---,0.00,VWS V14.01,2013-02-09 13:21:00,
2013-02-09 05:26:00,32.4,26.0,29.98,West,268,6.3,7.6,77,0.00,,---,0.00,VWS V14.01,2013-02-09 13:26:00,
2013-02-09 05:31:00,32.4,25.6,29.98,SE,138,6.3,6.3,76,0.00,,---,0.00,VWS V14.01,2013-02-09 13:31:00,
2013-02-09 05:36:00,32.5,25.8,29.98,SW,225,0.0,6.3,76,0.00,,---,0.00,VWS V14.01,2013-02-09 13:36:00,
2013-02-09 05:41:00,32.7,25.7,29.98,NE,48,0.0,5.8,75,0.00,,---,0.00,VWS V14.01,2013-02-09 13:41:00,
2013-02-09 05:47:00,32.5,25.5,29.98,SSW,204,0.0,5.8,75,0.00,,---,0.00,VWS V14.01,2013-02-09 13:47:00,
2013-02-09 05:52:00,32.5,25.2,29.98,SE,126,3.6,4.0,74,0.00,,---,0.00,VWS V14.01,2013-02-09 13:52:00,
2013-02-09 05:57:00,32.7,25.4,29.98,SE,142,2.2,6.7,74,0.00,,---,0.00,VWS V14.01,2013-02-09 13:57:00,
2013-02-09 06:02:00,32.7,25.4,29.98,NNE,15,0.0,0.0,74,0.00,,---,0.00,VWS V14.01,2013-02-09 14:02:00,
2013-02-09 06:07:00,32.2,24.8,29.98,ESE,111,0.0,0.0,74,0.00,,---,0.00,VWS V14.01,2013-02-09 14:07:00,
2013-02-09 06:12:00,31.8,24.5,29.98,North,0,0.0,3.1,74,0.00,,---,0.00,VWS V14.01,2013-02-09 14:12:00,
2013-02-09 06:17:00,31.8,24.5,29.98,SW,217,0.0,3.1,74,0.00,,---,0.00,VWS V14.01,2013-02-09 14:17:00,
2013-02-09 06:23:00,31.1,24.4,29.98,SSE,151,2.7,2.7,76,0.00,,---,0.00,VWS V14.01,2013-02-09 14:23:00,
2013-02-09 06:28:00,31.1,24.4,29.98,SSW,195,3.6,13.6,76,0.00,,---,0.00,VWS V14.01,2013-02-09 14:28:00,
2013-02-09 06:33:00,31.3,24.6,29.98,WNW,303,0.0,0.0,76,0.00,,---,0.00,VWS V14.01,2013-02-09 14:33:00,
2013-02-09 06:38:00,31.3,24.6,29.98,South,179,4.0,4.0,76,0.00,,---,0.00,VWS V14.01,2013-02-09 14:38:00,
2013-02-09 06:43:00,30.6,23.9,29.98,ENE,74,3.1,6.3,76,0.00,,---,0.00,VWS V14.01,2013-02-09 14:43:00,
2013-02-09 06:48:00,30.4,24.0,29.98,ESE,120,4.0,6.3,77,0.00,,---,0.00,VWS V14.01,2013-02-09 14:48:00,
2013-02-09 06:53:00,30.2,24.2,29.98,SSE,148,0.0,0.0,78,0.00,,---,0.00,VWS V14.01,2013-02-09 14:53:00,
2013-02-09 06:58:00,30.2,24.2,29.98,East,93,0.0,4.0,78,0.00,,---,0.00,VWS V14.01,2013-02-09 14:58:00,
2013-02-09 07:03:00,30.2,24.2,29.98,SSE,157,0.0,4.5,78,0.00,,---,0.00,VWS V14.01,2013-02-09 15:03:00,
2013-02-09 07:08:00,30.2,24.2,29.98,East,97,3.1,4.5,78,0.00,,---,0.00,VWS V14.01,2013-02-09 15:08:00,
2013-02-09 07:13:00,30.2,24.2,29.98,ESE,121,3.6,5.4,78,0.00,,---,0.00,VWS V14.01,2013-02-09 15:13:00,
2013-02-09 07:18:00,30.2,24.2,29.98,NNW,329,0.0,5.4,78,0.00,,---,0.00,VWS V14.01,2013-02-09 15:18:00,
2013-02-09 07:23:00,30.2,24.2,29.98,NNE,13,0.0,3.1,78,0.00,,---,0.00,VWS V14.01,2013-02-09 15:23:00,
2013-02-09 07:29:00,30.2,24.2,29.98,NNE,25,0.0,8.1,78,0.00,,---,0.00,VWS V14.01,2013-02-09 15:29:00,
2013-02-09 07:34:00,30.2,24.2,29.98,SSE,149,6.3,8.1,78,0.00,,---,0.00,VWS V14.01,2013-02-09 15:34:00,
2013-02-09 07:39:00,30.2,24.2,29.98,SE,141,4.0,8.7,78,0.00,,---,0.00,VWS V14.01,2013-02-09 15:39:00,
2013-02-09 07:44:00,30.2,24.2,29.98,West,265,0.0,5.4,78,0.00,,---,0.00,VWS V14.01,2013-02-09 15:44:00,
2013-02-09 07:49:00,33.1,26.0,29.98,SSE,168,0.0,6.3,75,0.00,,---,0.00,VWS V14.01,2013-02-09 15:49:00,
2013-02-09 07:54:00,33.6,26.2,29.98,ESE,103,3.6,12.3,74,0.00,,---,0.00,VWS V14.01,2013-02-09 15:54:00,
2013-02-09 07:59:00,33.6,26.2,29.98,SSW,210,3.1,12.3,74,0.00,,---,0.00,VWS V14.01,2013-02-09 15:59:00,
2013-02-09 08:04:00,33.6,25.9,29.98,SE,132,7.2,7.2,73,0.00,,---,0.00,VWS V14.01,2013-02-09 16:04:00,
2013-02-09 08:09:00,33.6,25.9,29.98,SE,142,2.7,8.7,73,0.00,,---,0.00,VWS V14.01,2013-02-09 16:09:00,
2013-02-09 08:14:00,34.2,26.1,29.98,ESE,119,7.6,8.1,72,0.00,,---,0.00,VWS V14.01,2013-02-09 16:14:00,
2013-02-09 08:20:00,34.3,25.9,29.98,ENE,72,3.1,8.1,71,0.00,,---,0.00,VWS V14.01,2013-02-09 16:20:00,
2013-02-09 08:25:00,34.3,25.9,29.98,NW,317,0.0,5.4,71,0.00,,---,0.00,VWS V14.01,2013-02-09 16:25:00,
2013-02-09 08:30:00,34.3,25.6,29.98,North,3,2.2,8.1,70,0.00,,---,0.00,VWS V14.01,2013-02-09 16:30:00,
2013-02-09 08:35:00,34.3,25.2,29.98,South,172,0.0,5.8,69,0.00,,---,0.00,VWS V14.01,2013-02-09 16:35:00,
2013-02-09 08:40:00,34.3,25.6,29.98,SSE,155,4.5,4.5,70,0.00,,---,0.00,VWS V14.01,2013-02-09 16:40:00,
2013-02-09 08:45:00,34.0,25.2,29.98,SE,142,0.0,8.1,70,0.00,,---,0.00,VWS V14.01,2013-02-09 16:45:00,
2013-02-09 08:50:00,34.0,25.2,29.98,SW,215,0.0,0.0,70,0.00,,---,0.00,VWS V14.01,2013-02-09 16:50:00,
2013-02-09 08:55:00,33.8,25.4,29.98,SSW,202,2.2,2.7,71,0.00,,---,0.00,VWS V14.01,2013-02-09 16:55:00,
2013-02-09 09:00:00,33.8,25.4,29.98,NW,304,0.0,2.2,71,0.00,,---,0.00,VWS V14.01,2013-02-09 17:00:00,
2013-02-09 09:05:00,34.0,25.2,29.98,South,186,4.0,4.0,70,0.00,,---,0.00,VWS V14.01,2013-02-09 17:05:00,
2013-02-09 09:11:00,34.2,25.4,29.98,East,96,0.0,6.3,70,0.00,,---,0.00,VWS V14.01,2013-02-09 17:11:00,
2013-02-09 09:16:00,34.3,25.6,29.98,ESE,123,3.1,6.3,70,0.00,,---,0.00,VWS V14.01,2013-02-09 17:16:00,
2013-02-09 09:21:00,34.3,25.6,29.98,NNW,327,0.0,3.1,70,0.00,,---,0.00,VWS V14.01,2013-02-09 17:21:00,
2013-02-09 09:26:00,34.5,25.8,29.98,SSE,164,0.0,8.7,70,0.00,,---,0.00,VWS V14.01,2013-02-09 17:26:00,
2013-02-09 09:31:00,34.3,25.6,29.98,SE,127,5.4,7.6,70,0.00,,---,0.00,VWS V14.01,2013-02-09 17:31:00,
2013-02-09 09:36:00,34.0,25.6,29.98,SE,129,0.0,7.6,71,0.00,,---,0.00,VWS V14.01,2013-02-09 17:36:00,
2013-02-09 09:41:00,33.8,25.4,29.98,WSW,246,6.3,8.1,71,0.00,,---,0.00,VWS V14.01,2013-02-09 17:41:00,
2013-02-09 09:46:00,34.0,25.6,29.98,ENE,67,4.0,8.1,71,0.00,,---,0.00,VWS V14.01,2013-02-09 17:46:00,
2013-02-09 09:51:00,34.2,25.8,29.98,South,178,6.3,6.7,71,0.00,,---,0.00,VWS V14.01,2013-02-09 17:51:00,
2013-02-09 09:56:00,34.2,26.1,29.98,ENE,57,3.6,6.7,72,0.00,,---,0.00,VWS V14.01,2013-02-09 17:56:00,
2013-02-09 10:01:00,34.2,26.1,29.98,East,83,2.7,3.1,72,0.00,,---,0.00,VWS V14.01,2013-02-09 18:01:00,
2013-02-09 10:07:00,34.5,26.1,29.98,SSE,163,0.0,5.8,71,0.00,,---,0.00,VWS V14.01,2013-02-09 18:07:00,
2013-02-09 10:12:00,34.5,26.1,29.98,ESE,106,3.1,4.9,71,0.00,,---,0.00,VWS V14.01,2013-02-09 18:12:00,
2013-02-09 10:17:00,34.7,26.6,29.98,East,88,3.6,8.7,72,0.00,,---,0.00,VWS V14.01,2013-02-09 18:17:00,
2013-02-09 10:22:00,34.7,26.6,29.98,SE,125,3.1,3.1,72,0.00,,---,0.00,VWS V14.01,2013-02-09 18:22:00,
2013-02-09 10:27:00,34.9,26.8,29.98,East,88,4.0,6.7,72,0.00,,---,0.00,VWS V14.01,2013-02-09 18:27:00,
2013-02-09 10:32:00,35.1,27.0,29.98,West,265,0.0,5.4,72,0.00,,---,0.00,VWS V14.01,2013-02-09 18:32:00,
2013-02-09 10:38:00,35.6,27.1,29.98,SE,139,0.0,8.7,71,0.00,,---,0.00,VWS V14.01,2013-02-09 18:38:00,
2013-02-09 10:43:00,35.8,27.3,29.98,ESE,112,8.3,8.7,71,0.00,,---,0.00,VWS V14.01,2013-02-09 18:43:00,
2013-02-09 10:48:00,36.1,27.3,29.98,SSE,164,2.2,8.7,70,0.00,,---,0.00,VWS V14.01,2013-02-09 18:48:00,
2013-02-09 10:53:00,36.5,27.3,29.98,South,180,0.0,8.1,69,0.00,,---,0.00,VWS V14.01,2013-02-09 18:53:00,
2013-02-09 10:58:00,37.2,26.5,29.98,WNW,286,0.0,8.1,65,0.00,,---,0.00,VWS V14.01,2013-02-09 18:58:00,
2013-02-09 11:03:00,37.6,26.9,29.98,SSE,164,4.0,5.4,65,0.00,,---,0.00,VWS V14.01,2013-02-09 19:03:00,
2013-02-09 11:09:00,37.8,26.7,29.98,South,187,2.2,5.4,64,0.00,,---,0.00,VWS V14.01,2013-02-09 19:09:00,
2013-02-09 11:14:00,37.9,26.5,29.98,NE,52,0.0,6.3,63,0.00,,---,0.00,VWS V14.01,2013-02-09 19:14:00,
2013-02-09 11:19:00,38.3,26.4,29.98,West,273,0.0,7.6,62,0.00,,---,0.00,VWS V14.01,2013-02-09 19:19:00,
2013-02-09 11:24:00,38.5,26.2,29.98,WSW,237,2.2,5.4,61,0.00,,---,0.00,VWS V14.01,2013-02-09 19:24:00,
2013-02-09 11:29:00,38.7,25.6,29.98,ESE,110,5.4,7.2,59,0.00,,---,0.00,VWS V14.01,2013-02-09 19:29:00,
2013-02-09 11:34:00,38.7,26.0,29.98,South,172,0.0,6.7,60,0.00,,---,0.00,VWS V14.01,2013-02-09 19:34:00,
2013-02-09 11:40:00,38.8,26.2,29.98,ESE,115,3.1,8.7,60,0.00,,---,0.00,VWS V14.01,2013-02-09 19:40:00,
2013-02-09 11:45:00,38.8,25.8,29.98,SE,135,5.4,8.7,59,0.00,,---,0.00,VWS V14.01,2013-02-09 19:45:00,
2013-02-09 11:50:00,38.7,26.0,29.98,SE,126,6.3,8.7,60,0.00,,---,0.00,VWS V14.01,2013-02-09 19:50:00,
2013-02-09 11:55:00,38.7,25.6,29.98,ESE,123,5.4,7.6,59,0.00,,---,0.00,VWS V14.01,2013-02-09 19:55:00,
2013-02-09 12:00:00,38.7,26.0,29.98,SE,131,4.0,4.0,60,0.00,,---,0.00,VWS V14.01,2013-02-09 20:00:00,
2013-02-09 12:05:00,38.8,26.2,29.95,ESE,119,0.0,7.6,60,0.00,,---,0.00,VWS V14.01,2013-02-09 20:05:00,
2013-02-09 12:10:00,38.8,26.2,29.95,ESE,113,6.7,6.7,60,0.00,,---,0.00,VWS V14.01,2013-02-09 20:10:00,
2013-02-09 12:15:00,38.7,26.0,29.95,ESE,119,0.0,8.1,60,0.00,,---,0.00,VWS V14.01,2013-02-09 20:15:00,
2013-02-09 12:20:00,38.7,26.0,29.98,SE,136,5.4,8.1,60,0.00,,---,0.00,VWS V14.01,2013-02-09 20:20:00,
2013-02-09 12:25:00,38.8,25.8,29.98,ESE,111,4.9,10.5,59,0.00,,---,0.00,VWS V14.01,2013-02-09 20:25:00,
2013-02-09 12:30:00,39.0,25.9,29.98,ESE,122,7.6,7.6,59,0.00,,---,0.00,VWS V14.01,2013-02-09 20:30:00,
2013-02-09 12:36:00,39.0,25.9,29.95,SE,125,5.8,10.5,59,0.00,,---,0.00,VWS V14.01,2013-02-09 20:36:00,
2013-02-09 12:41:00,39.2,25.7,29.95,ESE,115,4.9,5.4,58,0.00,,---,0.00,VWS V14.01,2013-02-09 20:41:00,
2013-02-09 12:46:00,39.0,25.9,29.95,ESE,113,6.3,8.7,59,0.00,,---,0.00,VWS V14.01,2013-02-09 20:46:00,
2013-02-09 12:51:00,39.2,25.7,29.95,East,98,2.7,5.8,58,0.00,,---,0.00,VWS V14.01,2013-02-09 20:51:00,
2013-02-09 12:56:00,39.2,25.7,29.95,East,87,5.8,8.1,58,0.00,,---,0.00,VWS V14.01,2013-02-09 20:56:00,
2013-02-09 13:01:00,39.2,25.7,29.95,SE,140,5.8,8.1,58,0.00,,---,0.00,VWS V14.01,2013-02-09 21:01:00,
2013-02-09 13:06:00,39.2,26.1,29.95,WSW,256,0.0,8.1,59,0.00,,---,0.00,VWS V14.01,2013-02-09 21:06:00,
2013-02-09 13:12:00,39.2,26.1,29.95,SE,142,2.7,5.4,59,0.00,,---,0.00,VWS V14.01,2013-02-09 21:12:00,
2013-02-09 13:17:00,39.2,26.1,29.95,SSE,158,3.1,6.3,59,0.00,,---,0.00,VWS V14.01,2013-02-09 21:17:00,
2013-02-09 13:22:00,39.2,25.7,29.95,SE,133,5.4,5.4,58,0.00,,---,0.00,VWS V14.01,2013-02-09 21:22:00,
2013-02-09 13:27:00,39.2,25.7,29.95,ESE,112,5.8,8.7,58,0.00,,---,0.00,VWS V14.01,2013-02-09 21:27:00,
2013-02-09 13:32:00,39.2,25.7,29.95,SSE,165,0.0,0.0,58,0.00,,---,0.00,VWS V14.01,2013-02-09 21:32:00,
2013-02-09 13:37:00,39.2,25.7,29.95,SSE,162,0.0,6.3,58,0.00,,---,0.00,VWS V14.01,2013-02-09 21:37:00,
2013-02-09 13:42:00,39.2,25.7,29.95,South,169,3.6,8.7,58,0.00,,---,0.00,VWS V14.01,2013-02-09 21:42:00,
2013-02-09 13:47:00,39.2,25.7,29.95,SE,132,0.0,8.7,58,0.00,,---,0.00,VWS V14.01,2013-02-09 21:47:00,
2013-02-09 13:52:00,39.2,25.7,29.95,SE,127,5.4,6.3,58,0.00,,---,0.00,VWS V14.01,2013-02-09 21:52:00,
2013-02-09 13:57:00,39.6,25.6,29.95,NW,326,5.4,9.6,57,0.00,,---,0.00,VWS V14.01,2013-02-09 21:57:00,
2013-02-09 14:02:00,39.4,25.9,29.95,SSE,160,5.4,7.6,58,0.00,,---,0.00,VWS V14.01,2013-02-09 22:02:00,
2013-02-09 14:08:00,39.2,25.7,29.95,ESE,121,3.6,8.1,58,0.00,,---,0.00,VWS V14.01,2013-02-09 22:08:00,
2013-02-09 14:13:00,39.2,25.7,29.95,ESE,104,3.6,8.3,58,0.00,,---,0.00,VWS V14.01,2013-02-09 22:13:00,
2013-02-09 14:18:00,39.2,25.7,29.95,SE,135,3.1,9.2,58,0.00,,---,0.00,VWS V14.01,2013-02-09 22:18:00,
2013-02-09 14:23:00,39.2,25.7,29.95,NW,319,2.2,8.1,58,0.00,,---,0.00,VWS V14.01,2013-02-09 22:23:00,
2013-02-09 14:28:00,38.8,26.2,29.95,East,93,0.0,8.1,60,0.00,,---,0.00,VWS V14.01,2013-02-09 22:28:00,
2013-02-09 14:33:00,38.8,26.2,29.95,WSW,254,0.0,8.1,60,0.00,,---,0.00,VWS V14.01,2013-02-09 22:33:00,
2013-02-09 14:38:00,38.8,26.2,29.95,SSE,159,5.4,8.3,60,0.00,,---,0.00,VWS V14.01,2013-02-09 22:38:00,
2013-02-09 14:43:00,38.8,26.2,29.95,SW,217,6.3,8.3,60,0.00,,---,0.00,VWS V14.01,2013-02-09 22:43:00,
2013-02-09 14:48:00,38.8,26.2,29.95,ESE,116,4.9,8.3,60,0.00,,---,0.00,VWS V14.01,2013-02-09 22:48:00,
2013-02-09 14:53:00,38.8,26.2,29.95,NNE,23,0.0,5.8,60,0.00,,---,0.00,VWS V14.01,2013-02-09 22:53:00,
2013-02-09 14:58:00,38.8,26.2,29.95,SW,233,0.0,9.6,60,0.00,,---,0.00,VWS V14.01,2013-02-09 22:58:00,
2013-02-09 15:04:00,38.8,26.2,29.95,SSE,148,3.1,3.6,60,0.00,,---,0.00,VWS V14.01,2013-02-09 23:04:00,
2013-02-09 15:09:00,38.8,26.2,29.95,SE,137,0.0,5.4,60,0.00,,---,0.00,VWS V14.01,2013-02-09 23:09:00,
2013-02-09 15:14:00,38.8,26.2,29.95,WNW,287,0.0,6.3,60,0.00,,---,0.00,VWS V14.01,2013-02-09 23:14:00,
2013-02-09 15:19:00,38.8,26.2,29.95,SSE,155,0.0,6.3,60,0.00,,---,0.00,VWS V14.01,2013-02-09 23:19:00,
2013-02-09 15:24:00,38.8,26.2,29.95,SSW,199,5.8,8.7,60,0.00,,---,0.00,VWS V14.01,2013-02-09 23:24:00,
2013-02-09 15:30:00,38.8,26.2,29.95,SE,142,2.2,8.7,60,0.00,,---,0.00,VWS V14.01,2013-02-09 23:30:00,
2013-02-09 15:35:00,38.8,26.2,29.98,SE,133,0.0,7.6,60,0.00,,---,0.00,VWS V14.01,2013-02-09 23:35:00,
2013-02-09 15:40:00,38.8,26.2,29.98,South,187,0.0,2.2,60,0.00,,---,0.00,VWS V14.01,2013-02-09 23:40:00,
2013-02-09 15:45:00,38.8,26.2,29.98,SW,216,4.0,8.1,60,0.00,,---,0.00,VWS V14.01,2013-02-09 23:45:00,
2013-02-09 15:51:00,38.8,26.2,29.98,South,181,2.7,2.7,60,0.00,,---,0.00,VWS V14.01,2013-02-09 23:51:00,
2013-02-09 15:56:00,38.8,26.2,29.98,South,169,0.0,4.0,60,0.00,,---,0.00,VWS V14.01,2013-02-09 23:56:00,
2013-02-09 16:01:00,38.8,26.2,29.98,ESE,123,0.0,6.3,60,0.00,,---,0.00,VWS V14.01,2013-02-10 00:01:00,
2013-02-09 16:06:00,38.8,26.2,29.98,SSE,151,0.0,6.3,60,0.00,,---,0.00,VWS V14.01,2013-02-10 00:06:00,
2013-02-09 16:12:00,38.8,26.2,29.98,SW,215,0.0,0.0,60,0.00,,---,0.00,VWS V14.01,2013-02-10 00:12:00,
2013-02-09 16:17:00,38.8,26.2,29.98,SE,126,0.0,4.0,60,0.00,,---,0.00,VWS V14.01,2013-02-10 00:17:00,
2013-02-09 16:22:00,38.8,26.2,29.98,SSE,158,0.0,0.0,60,0.00,,---,0.00,VWS V14.01,2013-02-10 00:22:00,
2013-02-09 16:27:00,38.8,26.2,29.98,North,357,0.0,4.0,60,0.00,,---,0.00,VWS V14.01,2013-02-10 00:27:00,
2013-02-09 16:32:00,38.8,26.2,29.98,ESE,118,0.0,2.7,60,0.00,,---,0.00,VWS V14.01,2013-02-10 00:32:00,
2013-02-09 16:37:00,38.8,26.2,29.98,NNW,335,0.0,5.8,60,0.00,,---,0.00,VWS V14.01,2013-02-10 00:37:00,
2013-02-09 16:42:00,37.4,25.6,29.98,ENE,78,0.0,3.6,62,0.00,,---,0.00,VWS V14.01,2013-02-10 00:42:00,
2013-02-09 16:47:00,37.4,25.6,29.98,WNW,293,0.0,3.6,62,0.00,,---,0.00,VWS V14.01,2013-02-10 00:47:00,
2013-02-09 16:52:00,37.4,25.6,29.98,SSE,155,3.1,8.1,62,0.00,,---,0.00,VWS V14.01,2013-02-10 00:52:00,
2013-02-09 16:57:00,37.4,25.6,29.98,ESE,121,0.0,8.1,62,0.00,,---,0.00,VWS V14.01,2013-02-10 00:57:00,
2013-02-09 17:02:00,37.4,25.6,29.98,SE,133,0.0,5.4,62,0.00,,---,0.00,VWS V14.01,2013-02-10 01:02:00,
2013-02-09 17:08:00,37.4,25.6,29.98,SE,125,3.6,5.4,62,0.00,,---,0.00,VWS V14.01,2013-02-10 01:08:00,
2013-02-09 17:13:00,37.4,25.6,29.98,SSE,148,7.2,7.2,62,0.00,,---,0.00,VWS V14.01,2013-02-10 01:13:00,
2013-02-09 17:18:00,37.4,25.6,30.01,East,92,0.0,8.1,62,0.00,,---,0.00,VWS V14.01,2013-02-10 01:18:00,
2013-02-09 17:23:00,37.4,25.6,30.01,SE,128,3.6,7.2,62,0.00,,---,0.00,VWS V14.01,2013-02-10 01:23:00,
2013-02-09 17:28:00,37.4,25.6,30.01,SSE,151,2.7,7.2,62,0.00,,---,0.00,VWS V14.01,2013-02-10 01:28:00,
2013-02-09 17:33:00,37.4,25.6,30.01,SE,124,5.8,5.8,62,0.00,,---,0.00,VWS V14.01,2013-02-10 01:33:00,
2013-02-09 17:38:00,37.4,25.6,30.01,SSE,166,0.0,6.3,62,0.00,,---,0.00,VWS V14.01,2013-02-10 01:38:00,
2013-02-09 17:43:00,37.4,25.6,30.01,SW,236,0.0,7.6,62,0.00,,---,0.00,VWS V14.01,2013-02-10 01:43:00,
2013-02-09 17:48:00,37.4,25.6,30.01,NNE,27,3.6,7.6,62,0.00,,---,0.00,VWS V14.01,2013-02-10 01:48:00,
2013-02-09 17:53:00,37.4,25.6,30.01,SE,137,0.0,5.8,62,0.00,,---,0.00,VWS V14.01,2013-02-10 01:53:00,
2013-02-09 17:59:00,37.4,25.6,30.01,SE,140,2.2,5.8,62,0.00,,---,0.00,VWS V14.01,2013-02-10 01:59:00,
2013-02-09 18:04:00,37.4,25.6,30.01,North,8,2.2,5.8,62,0.00,,---,0.00,VWS V14.01,2013-02-10 02:04:00,
2013-02-09 18:09:00,37.4,25.6,30.01,SSE,157,6.3,6.3,62,0.00,,---,0.00,VWS V14.01,2013-02-10 02:09:00,
2013-02-09 18:14:00,37.4,25.6,30.01,East,82,0.0,7.2,62,0.00,,---,0.00,VWS V14.01,2013-02-10 02:14:00,
2013-02-09 18:19:00,37.4,25.6,30.01,ESE,117,3.1,8.3,62,0.00,,---,0.00,VWS V14.01,2013-02-10 02:19:00,
2013-02-09 18:24:00,37.4,25.6,30.01,NE,46,0.0,5.8,62,0.00,,---,0.00,VWS V14.01,2013-02-10 02:24:00,
2013-02-09 18:30:00,37.4,25.6,30.01,SSE,157,5.8,10.5,62,0.00,,---,0.00,VWS V14.01,2013-02-10 02:30:00,
2013-02-09 18:35:00,37.4,25.6,30.01,SW,221,2.7,4.0,62,0.00,,---,0.00,VWS V14.01,2013-02-10 02:35:00,
2013-02-09 18:40:00,37.4,25.6,30.01,East,100,0.0,5.8,62,0.00,,---,0.00,VWS V14.01,2013-02-10 02:40:00,
2013-02-09 18:45:00,37.4,25.6,30.01,SSE,151,0.0,5.4,62,0.00,,---,0.00,VWS V14.01,2013-02-10 02:45:00,
2013-02-09 18:50:00,37.4,25.6,30.01,ESE,110,4.0,5.4,62,0.00,,---,0.00,VWS V14.01,2013-02-10 02:50:00,
2013-02-09 18:55:00,37.4,25.6,30.01,SE,134,7.6,7.6,62,0.00,,---,0.00,VWS V14.01,2013-02-10 02:55:00,
2013-02-09 19:01:00,37.4,25.6,30.01,SW,234,0.0,3.6,62,0.00,,---,0.00,VWS V14.01,2013-02-10 03:01:00,
2013-02-09 19:06:00,37.4,25.6,30.01,SE,130,2.2,3.6,62,0.00,,---,0.00,VWS V14.01,2013-02-10 03:06:00,
2013-02-09 19:11:00,37.4,25.6,30.01,SE,142,0.0,5.8,62,0.00,,---,0.00,VWS V14.01,2013-02-10 03:11:00,
2013-02-09 19:17:00,37.4,25.6,30.01,South,171,2.2,5.8,62,0.00,,---,0.00,VWS V14.01,2013-02-10 03:17:00,
2013-02-09 19:22:00,37.4,25.6,30.04,South,186,0.0,3.6,62,0.00,,---,0.00,VWS V14.01,2013-02-10 03:22:00,
2013-02-09 19:27:00,37.4,25.6,30.04,SE,144,0.0,6.7,62,0.00,,---,0.00,VWS V14.01,2013-02-10 03:27:00,
2013-02-09 19:32:00,37.4,25.6,30.04,SE,138,5.4,5.4,62,0.00,,---,0.00,VWS V14.01,2013-02-10 03:32:00,
2013-02-09 19:37:00,37.4,25.6,30.04,NE,51,0.0,8.1,62,0.00,,---,0.00,VWS V14.01,2013-02-10 03:37:00,
2013-02-09 19:42:00,37.4,25.6,30.04,SW,220,0.0,3.6,62,0.00,,---,0.00,VWS V14.01,2013-02-10 03:42:00,
2013-02-09 19:47:00,37.4,25.6,30.04,SSE,150,0.0,5.8,62,0.00,,---,0.00,VWS V14.01,2013-02-10 03:47:00,
2013-02-09 19:52:00,37.4,25.6,30.04,SE,129,0.0,2.2,62,0.00,,---,0.00,VWS V14.01,2013-02-10 03:52:00,
2013-02-09 19:57:00,37.4,25.6,30.04,SSE,163,0.0,4.9,62,0.00,,---,0.00,VWS V14.01,2013-02-10 03:57:00,
2013-02-09 20:03:00,37.4,25.6,30.04,ESE,117,5.4,7.6,62,0.00,,---,0.00,VWS V14.01,2013-02-10 04:03:00,
2013-02-09 20:08:00,37.4,25.6,30.04,SW,225,0.0,7.6,62,0.00,,---,0.00,VWS V14.01,2013-02-10 04:08:00,
2013-02-09 20:13:00,37.4,25.6,30.04,North,8,0.0,4.9,62,0.00,,---,0.00,VWS V14.01,2013-02-10 04:13:00,
2013-02-09 20:18:00,37.4,25.6,30.04,ENE,59,2.7,4.9,62,0.00,,---,0.00,VWS V14.01,2013-02-10 04:18:00,
2013-02-09 20:23:00,37.4,25.6,30.04,ENE,59,0.0,3.6,62,0.00,,---,0.00,VWS V14.01,2013-02-10 04:23:00,
2013-02-09 20:29:00,37.4,25.6,30.04,ENE,59,0.0,3.6,62,0.00,,---,0.00,VWS V14.01,2013-02-10 04:29:00,
2013-02-09 20:34:00,37.4,25.6,30.04,ENE,59,0.0,0.0,62,0.00,,---,0.00,VWS V14.01,2013-02-10 04:34:00,
2013-02-09 20:39:00,37.4,25.6,30.04,East,96,0.0,4.0,62,0.00,,---,0.00,VWS V14.01,2013-02-10 04:39:00,
2013-02-09 20:44:00,37.4,25.6,30.04,East,96,3.1,3.1,62,0.00,,---,0.00,VWS V14.01,2013-02-10 04:44:00,
2013-02-09 20:49:00,37.4,25.6,30.04,ESE,103,0.0,4.0,62,0.00,,---,0.00,VWS V14.01,2013-02-10 04:49:00,
2013-02-09 20:54:00,37.4,25.6,30.04,ESE,103,0.0,3.1,62,0.00,,---,0.00,VWS V14.01,2013-02-10 04:54:00,
2013-02-09 20:59:00,37.4,25.6,30.04,ESE,113,2.7,5.4,62,0.00,,---,0.00,VWS V14.01,2013-02-10 04:59:00,
2013-02-09 21:00:00,37.4,25.6,30.04,ESE,113,0.0,5.4,62,0.00,,---,0.00,VWS V14.01,2013-02-10 05:00:00,
2013-02-09 21:05:00,37.4,25.6,30.04,ESE,113,0.0,0.0,62,0.00,,---,0.00,VWS V14.01,2013-02-10 05:05:00,
2013-02-09 21:11:00,37.4,25.6,30.04,ESE,113,0.0,0.0,62,0.00,,---,0.00,VWS V14.01,2013-02-10 05:11:00,
2013-02-09 21:16:00,37.4,25.6,30.04,ESE,113,0.0,0.0,62,0.00,,---,0.00,VWS V14.01,2013-02-10 05:16:00,
2013-02-09 21:21:00,37.4,25.6,30.04,ESE,113,0.0,0.0,62,0.00,,---,0.00,VWS V14.01,2013-02-10 05:21:00,
2013-02-09 21:26:00,37.4,25.6,30.04,ESE,113,0.0,0.0,62,0.00,,---,0.00,VWS V14.01,2013-02-10 05:26:00,
2013-02-09 21:31:00,37.4,25.6,30.04,ESE,113,0.0,0.0,62,0.00,,---,0.00,VWS V14.01,2013-02-10 05:31:00,
2013-02-09 21:36:00,37.4,25.6,30.04,ESE,113,0.0,0.0,62,0.00,,---,0.00,VWS V14.01,2013-02-10 05:36:00,
2013-02-09 21:41:00,37.4,25.6,30.04,ESE,113,0.0,0.0,62,0.00,,---,0.00,VWS V14.01,2013-02-10 05:41:00,
2013-02-09 21:46:00,37.4,25.6,30.04,ESE,113,0.0,0.0,62,0.00,,---,0.00,VWS V14.01,2013-02-10 05:46:00,
2013-02-09 21:51:00,37.4,25.6,30.04,ESE,113,0.0,0.0,62,0.00,,---,0.00,VWS V14.01,2013-02-10 05:51:00,
2013-02-09 21:57:00,37.4,25.6,30.04,ESE,113,0.0,0.0,62,0.00,,---,0.00,VWS V14.01,2013-02-10 05:57:00,
2013-02-09 22:02:00,37.4,25.6,30.04,ESE,113,0.0,0.0,62,0.00,,---,0.00,VWS V14.01,2013-02-10 06:02:00,
2013-02-09 22:07:00,37.4,25.6,30.07,ESE,113,0.0,0.0,62,0.00,,---,0.00,VWS V14.01,2013-02-10 06:07:00,
2013-02-09 22:12:00,29.8,25.0,30.07,ESE,113,0.0,0.0,82,0.00,,---,0.00,VWS V14.01,2013-02-10 06:12:00,
2013-02-09 22:17:00,29.7,24.9,30.07,ESE,113,0.0,3.1,82,0.00,,---,0.00,VWS V14.01,2013-02-10 06:17:00,
2013-02-09 22:22:00,29.7,24.9,30.07,SE,129,0.0,5.4,82,0.00,,---,0.00,VWS V14.01,2013-02-10 06:22:00,
2013-02-09 22:27:00,29.8,25.0,30.07,ESE,111,0.0,5.4,82,0.00,,---,0.00,VWS V14.01,2013-02-10 06:27:00,
2013-02-09 22:32:00,29.8,25.0,30.07,ESE,110,0.0,0.0,82,0.00,,---,0.00,VWS V14.01,2013-02-10 06:32:00,
2013-02-09 22:37:00,29.8,25.0,30.07,ESE,110,0.0,0.0,82,0.00,,---,0.00,VWS V14.01,2013-02-10 06:37:00,
2013-02-09 22:42:00,29.8,25.0,30.07,ESE,111,0.0,0.0,82,0.00,,---,0.00,VWS V14.01,2013-02-10 06:42:00,
2013-02-09 22:48:00,29.5,25.0,30.07,NNW,344,0.0,2.2,83,0.00,,---,0.00,VWS V14.01,2013-02-10 06:48:00,
2013-02-09 22:53:00,29.5,25.0,30.07,NNW,344,0.0,0.0,83,0.00,,---,0.00,VWS V14.01,2013-02-10 06:53:00,
2013-02-09 22:58:00,29.5,25.0,30.07,North,357,0.0,0.0,83,0.00,,---,0.00,VWS V14.01,2013-02-10 06:58:00,
2013-02-09 23:03:00,29.5,25.2,30.07,North,357,0.0,0.0,84,0.00,,---,0.00,VWS V14.01,2013-02-10 07:03:00,
2013-02-09 23:08:00,29.5,25.2,30.07,ESE,118,0.0,0.0,84,0.00,,---,0.00,VWS V14.01,2013-02-10 07:08:00,
2013-02-09 23:13:00,29.3,25.1,30.07,ESE,118,0.0,0.0,84,0.00,,---,0.00,VWS V14.01,2013-02-10 07:13:00,
2013-02-09 23:18:00,29.1,24.9,30.07,ESE,118,0.0,0.0,84,0.00,,---,0.00,VWS V14.01,2013-02-10 07:18:00,
2013-02-09 23:23:00,29.1,24.9,30.07,ESE,118,0.0,0.0,84,0.00,,---,0.00,VWS V14.01,2013-02-10 07:23:00,
2013-02-09 23:28:00,28.9,24.7,30.07,NE,48,0.0,0.0,84,0.00,,---,0.00,VWS V14.01,2013-02-10 07:28:00,
2013-02-09 23:33:00,28.9,25.0,30.07,East,91,0.0,0.0,85,0.00,,---,0.00,VWS V14.01,2013-02-10 07:33:00,
2013-02-09 23:38:00,28.8,24.8,30.07,East,85,0.0,0.0,85,0.00,,---,0.00,VWS V14.01,2013-02-10 07:38:00,
2013-02-09 23:43:00,28.8,24.8,30.07,East,85,0.0,0.0,85,0.00,,---,0.00,VWS V14.01,2013-02-10 07:43:00,
2013-02-09 23:49:00,28.6,24.6,30.07,East,85,0.0,0.0,85,0.00,,---,0.00,VWS V14.01,2013-02-10 07:49:00,
2013-02-09 23:54:00,28.6,24.6,30.07,East,85,0.0,0.0,85,0.00,,---,0.00,VWS V14.01,2013-02-10 07:54:00,
2013-02-09 23:59:00,28.6,24.6,30.07,East,85,0.0,0.0,85,0.00,,---,0.00,VWS V14.01,2013-02-10 07:59:00,